Location: Hylo
(54.6785°N, 112.2142°W)
Time: 11:54:55
(UTC+00:00)

ACS3 Solar Sail - Pass Details

Date: 23 September 2024
Orbit: 961 x 1035 km, 97.4° (Epoch: 08 October)

Event Time Altitude Azimuth Distance (km) Brightness Sun altitude
Exits shadow 03:02:45 - 154° (SSE) 2,953 3.9 -14.6°
Maximum altitude 03:09:27 73° 71° (ENE) 1,087 1.9 -15.5°
Drops below altitude 10° 03:15:53 10° 349° (NNW) 2,845 4.7 -16.3°
Sets 03:18:24 0° 347° (NNW) 3,794 5.4 -16.6°
